TimeAKST,TemperatureF,Dew PointF,Humidity,Sea Level PressureIn,VisibilityMPH,Wind Direction,Wind SpeedMPH,Gust SpeedMPH,PrecipitationIn,Events,Conditions,WindDirDegrees,DateUTC
12:53 AM,37.0,28.0,70,29.31,10.0,North,12.7,18.4,N/A,,Overcast,10,2012-11-04 08:53:00
1:53 AM,36.0,28.0,73,29.32,10.0,North,10.4,-,N/A,,Clear,10,2012-11-04 09:53:00
1:53 AM,35.1,28.0,76,29.32,10.0,North,6.9,-,N/A,,Mostly Cloudy,10,2012-11-04 10:53:00
3:53 AM,36.0,28.0,73,29.30,10.0,North,12.7,21.9,N/A,,Clear,10,2012-11-04 12:53:00
4:53 AM,36.0,28.9,76,29.29,10.0,North,11.5,-,N/A,,Clear,10,2012-11-04 13:53:00
5:53 AM,35.1,28.9,78,29.30,10.0,North,12.7,19.6,N/A,,Clear,10,2012-11-04 14:53:00
6:53 AM,34.0,27.0,75,29.28,10.0,North,17.3,25.3,N/A,,Clear,10,2012-11-04 15:53:00
7:53 AM,33.1,26.1,75,29.28,10.0,North,15.0,25.3,N/A,,Clear,10,2012-11-04 16:53:00
8:53 AM,33.1,26.1,75,29.27,10.0,North,18.4,25.3,N/A,,Clear,10,2012-11-04 17:53:00
9:53 AM,32.0,24.1,73,29.27,10.0,NNE,20.7,31.1,N/A,,Clear,20,2012-11-04 18:53:00
10:53 AM,34.0,25.0,70,29.26,10.0,North,21.9,34.5,N/A,,Clear,10,2012-11-04 19:53:00
11:53 AM,35.1,25.0,67,29.26,10.0,NNE,19.6,28.8,N/A,,Clear,20,2012-11-04 20:53:00
12:53 PM,36.0,25.0,64,29.25,10.0,North,15.0,28.8,N/A,,Clear,10,2012-11-04 21:53:00
1:53 PM,35.1,24.1,64,29.24,10.0,NNE,20.7,29.9,N/A,,Clear,30,2012-11-04 22:53:00
2:53 PM,35.1,23.0,61,29.23,10.0,North,23.0,31.1,N/A,,Clear,360,2012-11-04 23:53:00
3:53 PM,32.0,21.0,64,29.23,10.0,North,24.2,32.2,N/A,,Clear,360,2012-11-05 00:53:00
4:53 PM,32.0,21.0,64,29.24,10.0,North,18.4,29.9,N/A,,Clear,10,2012-11-05 01:53:00
5:53 PM,30.0,19.0,64,29.26,10.0,North,23.0,35.7,N/A,,Clear,360,2012-11-05 02:53:00
6:53 PM,30.0,18.0,61,29.26,10.0,North,27.6,39.1,N/A,,Clear,360,2012-11-05 03:53:00
7:53 PM,30.9,18.0,59,29.26,10.0,North,27.6,42.6,N/A,,Clear,360,2012-11-05 04:53:00
8:53 PM,30.9,17.1,57,29.27,10.0,North,24.2,38.0,N/A,,Clear,10,2012-11-05 05:53:00
9:53 PM,30.9,16.0,54,29.29,10.0,North,26.5,41.4,N/A,,Clear,10,2012-11-05 06:53:00
10:53 PM,30.9,15.1,52,29.32,10.0,North,23.0,36.8,N/A,,Clear,360,2012-11-05 07:53:00